Location: Ford County Road and Bridge Department
(37.7686°N, 99.9762°W)
Time: 04:36:07
(UTC+00:00)

Cosmos 1626 Rocket - Pass Details

Date: 18 January 2020
Orbit: 603 x 631 km, 82.5° (Epoch: 18 February)

Event Time Altitude Azimuth Distance (km) Brightness Sun altitude
Rises 00:22:22 0° 176° (S) 2,869 7.2 -7.3°
Reaches altitude 10° 00:24:36 10° 172° (S) 1,964 6.3 -7.7°
Maximum altitude 00:28:52 58° 94° (E) 716 3.6 -8.5°
Drops below altitude 10° 00:33:08 10° 16° (NNE) 1,964 5.8 -9.3°
Sets 00:35:22 0° 12° (NNE) 2,869 6.7 -9.7°
